Regional Weather Roundup
Issued by NWS

Home | Current Version | Previous Version | Graphics & Text | Print | Product List | Glossary On
Versions: 1 2 3 4 5 6 7 8 9 10 11 12 13 14 15 16 17 18 19 20 21 22 23 24 25 26 27 28 29 30 31 32 33 34 35 36 37 38 39 40 41 42 43 44 45 46 47 48 49 50
000
ASUS43 KTOP 031108
RWRKS

WEATHER ROUNDUP FOR KANSAS
NATIONAL WEATHER SERVICE GOODLAND KS
500 AM CST TUE MAR 03 2015

NOTE:  "FAIR" INDICATES FEW OR NO CLOUDS BELOW 12,000 FEET WITH NO
SIGNIFICANT WEATHER AND/OR OBSTRUCTIONS TO VISIBILITY.

KSZ001>006-013>018-027>032-041>047-031200-
NORTHWEST KANSAS

CITY           SKY/WX    TMP DP  RH WIND       PRES   REMARKS
GOODLAND       CLOUDY    33  28  81 NW8       29.58R
HAYS           MOCLDY    37  27  65 SW9       29.62S
HILL CITY      MOCLDY    35  31  85 W9        29.58R
RUSSELL        MOCLDY    37  32  82 SW14G25   29.62R WCI  28
$$

KSZ061>065-074>080-084>089-031200-
SOUTHWEST KANSAS

CITY           SKY/WX    TMP DP  RH WIND       PRES   REMARKS
DODGE CITY     MOCLDY    38  32  79 SW18G29   29.67R WCI  28
ELKHART          N/A     36  31  82 SW9         N/A
GARDEN CITY    CLOUDY    38  34  85 SW6       29.63S
GREAT BEND     MOCLDY    37  30  75 SW15G25   29.66R WCI  28
LIBERAL        MOCLDY    37  32  81 SW18      29.72S WCI  27
PRATT          PTCLDY    34  32  93 SW24G31   29.71S WCI  21
$$

KSZ066>073-081>083-090>101-031200-
SOUTHEAST KANSAS

CITY           SKY/WX    TMP DP  RH WIND       PRES   REMARKS
CHANUTE        CLOUDY    36  36 100 S18G26    29.83F FOG     WCI  26
COFFEYVILLE    FOG       36  36 100 S16       29.88F VSB 1   WCI  26
HUTCHINSON     CLOUDY    37  32  82 SW20G36   29.71R WCI  27
MEDICINE LODGE   N/A     34  33  96 S10       29.77R WCI  26
NEWTON         CLOUDY    36  30  80 SW24G35   29.73R WCI  24
PARSONS        CLOUDY    37  37 100 S13G21    29.87F FOG     WCI  29
WICHITA INTL   CLOUDY    36  33  89 S18G29    29.75F FOG     WCI  26
WICHITA JABRA  CLOUDY    36  34  92 S29G44    29.72F WCI  23
WICHITA MCCONL CLOUDY    36  35  94 S24G35    29.76S WCI  25
WINFIELD       CLOUDY    38  36  92 S20G28    29.83F WCI  28
$$

KSZ007>012-019>026-033>040-048>060-102>105-031200-
NORTHEAST KANSAS

CITY           SKY/WX    TMP DP  RH WIND       PRES   REMARKS
CONCORDIA      MOCLDY    33  30  88 S6        29.63F
EMPORIA        CLOUDY    36  35  96 S17G30    29.73F FOG     WCI  26
LAWRENCE       CLOUDY    36  34  92 S12G31    29.74F FOG     WCI  28
MANHATTAN      CLOUDY    38  35  89 SW15      29.71R WCI  29
MARYSVILLE     CLOUDY    34  34 100 SW8       29.68S FOG
OLATHE IND     CLOUDY    35  34  96 S18G30    29.77F FOG     WCI  24
OLATHE EXE     CLOUDY    35  35 100 SW9G30    29.77F FOG
SALINA         PTCLDY    38  32  79 S25G33    29.66R WCI  27
TOPEKA BILLARD CLOUDY    37  34  89 S12       29.72F WCI  29
TOPEKA FORBES  CLOUDY    37  34  89 S22G32    29.69F FOG     WCI  26
$$



USA.gov is the U.S. government's official web portal to all federal, state and local government web resources and services.